Location: Unspecified
(41.1637°N, 24.2901°E)
Time: 14:36:33
(UTC+01:00)

ARIANE 6 FM1 Upper Stage - Pass Details

Date: 21 January 2026
Orbit: 522 x 609 km, 62.0° (Epoch: 11 February)

Event Time Altitude Azimuth Distance (km) Brightness Sun altitude
Rises 16:55:02 0° 163° (SSE) 2,720 6.2 -5.9°
Reaches altitude 10° 16:59:13 10° 122° (ESE) 1,808 4.9 -6.6°
Maximum altitude 16:59:53 10° 112° (ESE) 1,783 4.8 -6.7°
Drops below altitude 10° 17:00:33 10° 103° (ESE) 1,802 4.7 -6.9°
Enters shadow 17:01:51 - 86° (E) 1,960 4.8 -7.1°
